Regional Weather Roundup
Issued by NWS

Home | Current Version | Previous Version | Graphics & Text | Print | Product List | Glossary On
Versions: 1 2 3 4 5 6 7 8 9 10 11 12 13 14 15 16 17 18 19 20 21 22 23 24 25 26 27 28 29 30 31 32 33 34 35 36 37 38 39 40 41 42 43 44 45 46 47 48 49 50
000
ASUS45 KPSR 162110
RWRAZ

ARIZONA REGIONAL HOURLY WEATHER ROUNDUP
NATIONAL WEATHER SERVICE PHOENIX AZ
200 PM MST TUE SEP 16 2014

NOTE: FAIR INDICATES FEW OR NO CLOUDS BELOW 12,000 FEET WITH NO
SIGNIFICANT WEATHER AND/OR OBSTRUCTIONS TO VISIBILITY.

AZZ001>003-036-162200-
NORTHWEST ARIZONA

CITY           SKY/WX    TMP DP  RH WIND       PRES   REMARKS
BULLHEAD CITY  SUNNY    100  64  30 SW10G18   29.80F HX 103
KINGMAN        SUNNY     88  60  38 MISG      30.00F
$$

AZZ004>008-015-016-018-162200-
NORTH CENTRAL ARIZONA

CITY           SKY/WX    TMP DP  RH WIND       PRES   REMARKS
GRAND CANYON   MOSUNNY   78  47  33 NE10      30.24F
PRESCOTT       PTSUNNY   80  55  42 SE12      30.12F
FLAGSTAFF      PTSUNNY   73  51  46 N12       30.26F
PAYSON         CLOUDY    75  59  57 S14       30.17F
PAGE           SUNNY     90  50  25 N6        30.07F
$$

AZZ009>014-017-162200-
NORTHEAST ARIZONA

CITY           SKY/WX    TMP DP  RH WIND       PRES   REMARKS
WINSLOW        MOSUNNY   86  50  28 E9G16     30.11F
SAINT JOHNS    CLOUDY    75  53  46 SE18      30.20S
SHOW LOW       LGT RAIN  59  55  88 S12       30.28F
$$

AZZ023-162200-
GREATER PHOENIX AREA

CITY           SKY/WX    TMP DP  RH WIND       PRES   REMARKS
PHOENIX        LGT RAIN  81  70  69 E9        29.89F
BUCKEYE          N/A     86  66  51 SE10      29.88F
GLENDALE       PTSUNNY   86  66  51 E13       29.91F
LUKE AFB       CLOUDY    88  67  49 SE15      29.89F
DEER VALLEY    CLOUDY    84  65  52 SE15      29.91F
SCOTTSDALE     LGT RAIN  81  69  67 SE8       29.93F
MESA-FALCON    CLOUDY    79  73  83 NE9       29.91F
MESA-GATEWAY   CLOUDY    81  72  74 MISG      29.93F
CHANDLER       CLOUDY    81  70  69 NE6       29.91F
$$

AZZ027-028-162200-
SOUTHWEST MARICOPA COUNTY AND PINAL COUNTY

CITY           SKY/WX    TMP DP  RH WIND       PRES   REMARKS
CASA GRANDE    CLOUDY    79  66  65 N8        29.92F
GILA BEND      LGT RAIN  82  70  65 NE5       29.88F
$$

AZZ503-504-507>509-162200-
SOUTHEAST ARIZONA

CITY           SKY/WX    TMP DP  RH WIND       PRES   REMARKS
TUCSON         CLOUDY    82  65  56 NE8       29.97F
DAVIS-MONTHAN  CLOUDY    80  65  59 NE10      29.95F
RYAN FIELD       N/A     82  66  57 E10       29.95F
NOGALES        CLOUDY    78  62  57 E12       30.01F
SIERRA VISTA   CLOUDY    72  64  78 E8        30.10F
DOUGLAS        LGT RAIN  75  64  68 E12       30.07F
SAFFORD        RAIN      68  67  96 SW3       30.07F VSB 1
$$

AZZ020-021-025-026-031-162200-
SOUTHWEST ARIZONA

CITY           SKY/WX    TMP DP  RH WIND       PRES   REMARKS
YUMA           CLOUDY    98  62  30 E12       29.77F
$$

CAZ031-033-041-043-047-048-061-162200-
SOUTHERN CALIFORNIA

CITY           SKY/WX    TMP DP  RH WIND       PRES   REMARKS
DOWNTOWN L.A.  SUNNY     95  61  32 VRB5      29.72F
L.A. AIRPORT   MOSUNNY   83  62  49 W10       29.74F
SAN DIEGO      MOSUNNY   90  64  42 NW7       29.72F
BURBANK        SUNNY    101  58  24 S12       29.73F HX 100
ONTARIO        MOSUNNY  107  52  16 CALM      29.73F HX 105
RIVERSIDE      MOSUNNY  107  55  18 CALM      29.72F HX 106
PALM SPRINGS   MOSUNNY  100  69  36 E9        29.79F HX 106
EL CENTRO NAS  MOSUNNY  101  64  29 E14       29.74F HX 104
IMPERIAL       SUNNY    101  65  30 E9        29.74F HX 104
BLYTHE         MOSUNNY   99  65  32 N5G16     29.78F HX 102
NEEDLES        MOSUNNY  100  65  31 VRB6      29.80F HX 103
$$

NVZ020-UTZ003-162200-
SOUTHERN NEVADA-UTAH

CITY           SKY/WX    TMP DP  RH WIND       PRES   REMARKS
LAS VEGAS      MOSUNNY  100  55  22 SE9       29.83F
SALT LAKE CITY MOSUNNY   92  35  13 S10       30.02F
$$

NMZ009-TXZ055-162200-
NEW MEXICO-WEST TEXAS

CITY           SKY/WX    TMP DP  RH WIND       PRES   REMARKS
ALBUQUERQUE    CLOUDY    71  58  63 S7        30.23F
EL PASO        PTSUNNY   80  62  54 E12       30.11F
$$


........................KEY........................
SKY/WX - SKY CONDITION/WEATHER
TMP    - TEMPERATURE IN FAHRENHEIT
DP     - DEW POINT IN FAHRENHEIT
RH     - RELATIVE HUMIDITY IN PERCENT
WIND   - DIRECTION AND SPEED IN MILES PER HOUR (MPH)
VRB    - VARIABLE WIND DIRECTION
PRES   - MEAN SEA LEVEL PRESSURE IN INCHES OF MERCURY
         F - FALLING PRESSURE   R - RISING PRESSURE
         S - STEADY PRESSURE
VSB    - VISIBILITY IN MILES
HX     - HEAT INDEX IN FAHRENHEIT
WCI    - WIND CHILL INDEX IN FAHRENHEIT
TC     - TEMPERATURE IN CELSIUS WHICH IS ALSO KNOWN AS
         TEMPERATURE IN CENTIGRADE
AFB    - AIR FORCE BASE
         LUKE AFB IS LUKE AIR FORCE BASE
         DAVIS-MONTHAN IS DAVIS-MONTHAN AIR FORCE BASE
NAS    - NAVAL AIR STATION
         EL CENTRO NAS IS EL CENTRO NAVAL AIR STATION
N/A    - NOT AVAILABLE



USA.gov is the U.S. government's official web portal to all federal, state and local government web resources and services.